Location: *
(37.4917°N, 71.5558°E)
Time: 18:57:44
(UTC+00:00)

CZ-2D R/B - Pass Details

Date: 09 April 2020
Orbit: 791 x 845 km, 98.7° (Epoch: 31 May)

Event Time Altitude Azimuth Distance (km) Brightness Sun altitude
Rises 21:35:20 0° 3° (N) 3,412 6.0 -34.0°
Reaches altitude 10° 21:37:51 10° 356° (N) 2,474 5.0 -33.6°
Enters shadow 21:40:21 24° 338° (NNW) 1,676 3.9 -33.3°
